QPF
0.00 0.00 0.00 0.00 0.00 0.00 0.00 0.00 0.00 0.00 0.00 0.00 0.00 0.00 0.00 0.00 0.00 0.00 0.00 0.00 0.00 0.00 0.00 0.01 0.01 0.02 0.02 0.05 0.05 0.06 0.08 0.11 0.11 0.10 0.11 0.11 0.08 0.08 0.09 0.10 0.11 0.12 0.13 0.15
0.00 0.00 0.00 0.00 0.00 0.00 0.00 0.00 0.00 0.00 0.00 0.00 0.00 0.00 0.00 0.00 0.00 0.00 0.00 0.00 0.00 0.00 0.01 0.01 0.01 0.02 0.07 0.08 0.08 0.10 0.11 0.12 0.10 0.09 0.09 0.09 0.11 0.11 0.09 0.10 0.11 0.11 0.14 0.19
0.00 0.00 0.00 0.00 0.00 0.00 0.00 0.00 0.00 0.00 0.00 0.00 0.00 0.00 0.00 0.00 0.00 0.00 0.00 0.00 0.01 0.01 0.01 0.01 0.01 0.01 0.01 0.01 0.02 0.04 0.07 0.07 0.07 0.06 0.06 0.06 0.08 0.10 0.10 0.09 0.13 0.13 0.12 0.13
0.00 0.00 0.00 0.00 0.00 0.00 0.00 0.00 0.00 0.00 0.00 0.00 0.00 0.00 0.00 0.00 0.00 0.00 0.00 0.00 0.01 0.01 0.01 0.01 0.01 0.01 0.01 0.01 0.01 0.01 0.02 0.03 0.04 0.04 0.04 0.06 0.08 0.08 0.09 0.10 0.12 0.17 0.20 0.17
0.00 0.00 0.00 0.00 0.00 0.00 0.00 0.00 0.00 0.00 0.00 0.00 0.00 0.00 0.00 0.00 0.01 0.00 0.00 0.01 0.01 0.01 0.01 0.01 0.01 0.01 0.01 0.01 0.01 0.01 0.02 0.02 0.03 0.06 0.05 0.06 0.07 0.08 0.09 0.10 0.10 0.11 0.17 0.17
0.00 0.00 0.00 0.00 0.00 0.00 0.00 0.00 0.00 0.00 0.00 0.00 0.00 0.00 0.00 0.00 0.00 0.00 0.01 0.00 0.01 0.01 0.01 0.01 0.01 0.00 0.00 0.01 0.01 0.02 0.02 0.02 0.04 0.06 0.07 0.07 0.08 0.09 0.10 0.10 0.10 0.09 0.10 0.11
0.00 0.00 0.00 0.00 0.00 0.00 0.00 0.00 0.00 0.00 0.00 0.00 0.00 0.00 0.00 0.00 0.00 0.00 0.00 0.00 0.00 0.00 0.01 0.01 0.00 0.00 0.00 0.01 0.01 0.02 0.02 0.02 0.02 0.03 0.05 0.07 0.08 0.09 0.10 0.10 0.09 0.09 0.09 0.08
0.00 0.00 0.00 0.00 0.00 0.00 0.00 0.00 0.00 0.00 0.00 0.00 0.00 0.00 0.00 0.00 0.01 0.01 0.00 0.00 0.00 0.00 0.00 0.00 0.00 0.00 0.01 0.02 0.02 0.03 0.02 0.02 0.01 0.03 0.04 0.06 0.06 0.06 0.09 0.09 0.08 0.07 0.07 0.07
0.00 0.00 0.00 0.00 0.00 0.00 0.00 0.00 0.00 0.00 0.00 0.00 0.00 0.00 0.00 0.00 0.01 0.00 0.00 0.00 0.00 0.00 0.00 0.00 0.00 0.00 0.01 0.01 0.01 0.02 0.02 0.02 0.02 0.03 0.02 0.03 0.04 0.04 0.05 0.07 0.07 0.06 0.05 0.05
0.00 0.00 0.00 0.00 0.00 0.00 0.00 0.00 0.00 0.00 0.01 0.01 0.00 0.00 0.00 0.00 0.00 0.00 0.00 0.00 0.00 0.00 0.00 0.00 0.00 0.00 0.01 0.01 0.01 0.01 0.02 0.03 0.02 0.02 0.03 0.02 0.03 0.03 0.03 0.05 0.07 0.06 0.05 0.04
0.00 0.00 0.00 0.00 0.00 0.00 0.00 0.00 0.00 0.00 0.01 0.01 0.01 0.00 0.00 0.00 0.00 0.00 0.00 0.00 0.00 0.00 0.00 0.00 0.00 0.00 0.00 0.00 0.01 0.01 0.01 0.02 0.02 0.02 0.02 0.02 0.02 0.03 0.03 0.03 0.04 0.04 0.03 0.03
0.00 0.00 0.00 0.00 0.00 0.00 0.00 0.00 0.00 0.01 0.01 0.01 0.01 0.01 0.00 0.00 0.00 0.00 0.00 0.00 0.00 0.00 0.00 0.00 0.00 0.00 0.00 0.00 0.01 0.01 0.01 0.01 0.01 0.02 0.02 0.02 0.01 0.02 0.02 0.03 0.04 0.04 0.02 0.02
0.00 0.01 0.01 0.01 0.01 0.00 0.00 0.00 0.00 0.00 0.01 0.02 0.02 0.01 0.00 0.00 0.00 0.00 0.00 0.00 0.00 0.00 0.00 0.00 0.00 0.00 0.00 0.00 0.00 0.01 0.02 0.03 0.02 0.02 0.02 0.02 0.01 0.01 0.02 0.03 0.03 0.02 0.01 0.01
0.01 0.02 0.02 0.02 0.01 0.00 0.00 0.00 0.00 0.01 0.02 0.01 0.01 0.01 0.01 0.00 0.00 0.00 0.00 0.00 0.00 0.00 0.00 0.00 0.00 0.00 0.00 0.00 0.00 0.00 0.01 0.03 0.05 0.05 0.04 0.03 0.02 0.01 0.01 0.02 0.03 0.03 0.03 0.03
0.00 0.01 0.01 0.00 0.00 0.00 0.00 0.00 0.00 0.00 0.01 0.01 0.01 0.01 0.01 0.01 0.00 0.00 0.00 0.00 0.00 0.00 0.00 0.00 0.00 0.00 0.00 0.00 0.00 0.01 0.01 0.01 0.03 0.04 0.04 0.04 0.03 0.02 0.01 0.01 0.03 0.06 0.04 0.04
0.00 0.01 0.00 0.00 0.00 0.00 0.00 0.00 0.00 0.00 0.00 0.01 0.02 0.02 0.01 0.01 0.00 0.00 0.00 0.00 0.01 0.01 0.00 0.00 0.00 0.00 0.01 0.01 0.00 0.00 0.01 0.01 0.01 0.02 0.02 0.03 0.03 0.02 0.02 0.02 0.02 0.04 0.05 0.05
0.00 0.00 0.00 0.00 0.00 0.00 0.01 0.01 0.01 0.00 0.00 0.01 0.04 0.04 0.01 0.00 0.00 0.00 0.01 0.01 0.02 0.01 0.00 0.00 0.00 0.00 0.01 0.01 0.01 0.00 0.01 0.01 0.01 0.02 0.02 0.03 0.02 0.02 0.02 0.03 0.03 0.03 0.04 0.06
0.00 0.00 0.01 0.01 0.01 0.02 0.01 0.01 0.00 0.00 0.01 0.01 0.02 0.02 0.00 0.00 0.00 0.00 0.00 0.00 0.01 0.01 0.01 0.01 0.00 0.01 0.01 0.02 0.01 0.01 0.01 0.01 0.01 0.02 0.02 0.02 0.02 0.03 0.03 0.03 0.03 0.04 0.04 0.07
0.00 0.01 0.01 0.02 0.02 0.02 0.01 0.00 0.01 0.03 0.04 0.01 0.01 0.01 0.00 0.00 0.00 0.00 0.00 0.01 0.01 0.01 0.01 0.01 0.00 0.00 0.01 0.01 0.02 0.02 0.02 0.02 0.02 0.02 0.03 0.03 0.02 0.03 0.03 0.03 0.03 0.03 0.04 0.04
0.00 0.01 0.02 0.02 0.02 0.03 0.02 0.00 0.00 0.03 0.07 0.02 0.01 0.01 0.00 0.00 0.01 0.01 0.00 0.01 0.01 0.01 0.01 0.01 0.01 0.01 0.02 0.02 0.02 0.02 0.02 0.02 0.02 0.02 0.03 0.03 0.04 0.03 0.03 0.03 0.03 0.04 0.04 0.03
0.02 0.01 0.02 0.02 0.03 0.04 0.01 0.00 0.01 0.06 0.06 0.01 0.01 0.01 0.00 0.01 0.01 0.00 0.00 0.01 0.01 0.00 0.00 0.01 0.01 0.02 0.04 0.04 0.02 0.02 0.02 0.03 0.03 0.03 0.03 0.03 0.03 0.03 0.03 0.04 0.04 0.03 0.03 0.04
0.04 0.04 0.03 0.03 0.04 0.05 0.01 0.01 0.02 0.04 0.02 0.01 0.01 0.01 0.01 0.01 0.00 0.01 0.01 0.01 0.01 0.00 0.01 0.02 0.02 0.04 0.05 0.04 0.03 0.03 0.03 0.03 0.03 0.03 0.03 0.03 0.03 0.03 0.04 0.05 0.04 0.03 0.03 0.04
0.04 0.03 0.03 0.04 0.05 0.04 0.02 0.01 0.01 0.01 0.01 0.01 0.01 0.01 0.00 0.01 0.01 0.01 0.01 0.01 0.01 0.01 0.02 0.02 0.03 0.05 0.04 0.04 0.04 0.04 0.04 0.03 0.03 0.03 0.03 0.03 0.03 0.04 0.06 0.06 0.06 0.04 0.04 0.03
0.02 0.01 0.01 0.02 0.03 0.03 0.03 0.02 0.01 0.01 0.01 0.01 0.00 0.00 0.00 0.01 0.01 0.01 0.01 0.01 0.01 0.01 0.01 0.02 0.02 0.03 0.04 0.04 0.03 0.03 0.03 0.03 0.04 0.04 0.04 0.03 0.03 0.04 0.06 0.05 0.05 0.04 0.03 0.03
0.00 0.01 0.01 0.02 0.03 0.03 0.03 0.02 0.01 0.01 0.00 0.00 0.00 0.00 0.01 0.01 0.01 0.01 0.01 0.01 0.01 0.01 0.02 0.02 0.02 0.03 0.03 0.03 0.02 0.02 0.03 0.04 0.04 0.05 0.04 0.04 0.04 0.04 0.04 0.03 0.03 0.02 0.01 0.01
0.01 0.01 0.02 0.02 0.02 0.02 0.03 0.02 0.01 0.00 0.00 0.00 0.01 0.01 0.02 0.01 0.01 0.00 0.00 0.01 0.01 0.01 0.01 0.02 0.02 0.02 0.02 0.03 0.03 0.02 0.03 0.04 0.05 0.05 0.04 0.04 0.03 0.02 0.02 0.02 0.01 0.01 0.01 0.01
MSLP
1011.98 1012.17 1012.24 1012.20 1012.09 1011.97 1011.91 1011.96 1012.16 1012.51 1013.00 1013.58 1014.19 1014.79 1015.34 1015.79 1016.16 1016.44 1016.66 1016.86 1017.04 1017.24 1017.44 1017.66 1017.86 1018.03 1018.14 1018.18 1018.14 1018.01 1017.83 1017.59 1017.35 1017.12 1016.93 1016.81 1016.76 1016.78 1016.87 1016.99 1017.11 1017.21 1017.27 1017.27
1012.23 1012.34 1012.34 1012.24 1012.09 1011.96 1011.90 1011.96 1012.17 1012.52 1013.00 1013.54 1014.11 1014.66 1015.16 1015.58 1015.93 1016.23 1016.50 1016.77 1017.04 1017.33 1017.63 1017.92 1018.18 1018.39 1018.51 1018.55 1018.49 1018.34 1018.12 1017.85 1017.57 1017.30 1017.07 1016.90 1016.80 1016.77 1016.81 1016.89 1016.99 1017.09 1017.17 1017.21
1012.40 1012.43 1012.36 1012.21 1012.04 1011.90 1011.86 1011.93 1012.16 1012.50 1012.93 1013.41 1013.90 1014.35 1014.76 1015.11 1015.43 1015.73 1016.05 1016.41 1016.80 1017.22 1017.65 1018.06 1018.42 1018.69 1018.85 1018.91 1018.84 1018.68 1018.44 1018.15 1017.84 1017.54 1017.27 1017.06 1016.90 1016.82 1016.79 1016.82 1016.89 1016.97 1017.06 1017.12
1012.48 1012.43 1012.29 1012.12 1011.95 1011.84 1011.83 1011.94 1012.18 1012.50 1012.88 1013.27 1013.64 1013.96 1014.24 1014.50 1014.76 1015.06 1015.43 1015.88 1016.40 1016.98 1017.56 1018.12 1018.59 1018.95 1019.18 1019.26 1019.21 1019.04 1018.79 1018.49 1018.16 1017.85 1017.56 1017.31 1017.11 1016.97 1016.88 1016.85 1016.87 1016.91 1016.98 1017.05
1012.46 1012.35 1012.18 1012.00 1011.86 1011.81 1011.86 1012.03 1012.29 1012.60 1012.91 1013.20 1013.43 1013.60 1013.74 1013.88 1014.08 1014.36 1014.77 1015.32 1015.97 1016.70 1017.45 1018.15 1018.75 1019.21 1019.49 1019.61 1019.57 1019.40 1019.15 1018.85 1018.53 1018.21 1017.92 1017.66 1017.43 1017.25 1017.11 1017.01 1016.96 1016.95 1016.97 1017.01
1012.38 1012.24 1012.06 1011.91 1011.84 1011.86 1011.99 1012.22 1012.51 1012.80 1013.06 1013.24 1013.33 1013.36 1013.35 1013.38 1013.50 1013.77 1014.21 1014.84 1015.62 1016.49 1017.39 1018.22 1018.92 1019.45 1019.79 1019.92 1019.89 1019.73 1019.49 1019.20 1018.89 1018.60 1018.33 1018.08 1017.85 1017.64 1017.46 1017.30 1017.18 1017.09 1017.04 1017.02
1012.32 1012.16 1012.00 1011.90 1011.89 1012.00 1012.22 1012.51 1012.83 1013.11 1013.31 1013.39 1013.36 1013.25 1013.12 1013.04 1013.10 1013.36 1013.84 1014.54 1015.42 1016.41 1017.42 1018.35 1019.13 1019.70 1020.06 1020.20 1020.17 1020.00 1019.76 1019.49 1019.23 1018.98 1018.75 1018.54 1018.33 1018.12 1017.91 1017.69 1017.50 1017.32 1017.18 1017.08
1012.34 1012.18 1012.05 1012.00 1012.06 1012.24 1012.52 1012.85 1013.18 1013.45 1013.59 1013.59 1013.46 1013.25 1013.02 1012.88 1012.91 1013.17 1013.69 1014.46 1015.42 1016.49 1017.57 1018.56 1019.37 1019.95 1020.30 1020.42 1020.37 1020.20 1019.97 1019.73 1019.51 1019.32 1019.16 1019.01 1018.84 1018.65 1018.42 1018.17 1017.90 1017.64 1017.40 1017.19
1012.51 1012.35 1012.24 1012.21 1012.31 1012.53 1012.83 1013.18 1013.50 1013.73 1013.82 1013.75 1013.55 1013.28 1013.01 1012.85 1012.88 1013.17 1013.74 1014.56 1015.58 1016.71 1017.83 1018.83 1019.63 1020.20 1020.51 1020.60 1020.53 1020.34 1020.12 1019.92 1019.76 1019.64 1019.56 1019.48 1019.37 1019.21 1018.99 1018.70 1018.37 1018.03 1017.69 1017.38
1012.84 1012.67 1012.56 1012.53 1012.62 1012.82 1013.10 1013.41 1013.68 1013.85 1013.88 1013.77 1013.54 1013.25 1012.98 1012.85 1012.94 1013.29 1013.92 1014.81 1015.88 1017.03 1018.15 1019.14 1019.91 1020.44 1020.70 1020.75 1020.65 1020.46 1020.26 1020.10 1020.00 1019.96 1019.97 1019.97 1019.92 1019.81 1019.60 1019.29 1018.92 1018.50 1018.08 1017.68
1013.31 1013.13 1012.98 1012.91 1012.94 1013.07 1013.26 1013.48 1013.65 1013.74 1013.71 1013.57 1013.33 1013.07 1012.87 1012.82 1012.99 1013.44 1014.16 1015.11 1016.22 1017.39 1018.50 1019.45 1020.18 1020.65 1020.87 1020.89 1020.77 1020.59 1020.42 1020.31 1020.28 1020.32 1020.40 1020.48 1020.50 1020.43 1020.24 1019.94 1019.54 1019.08 1018.60 1018.13
1013.86 1013.64 1013.43 1013.29 1013.21 1013.22 1013.28 1013.35 1013.41 1013.40 1013.30 1013.13 1012.92 1012.72 1012.62 1012.69 1013.00 1013.56 1014.38 1015.40 1016.55 1017.72 1018.81 1019.72 1020.41 1020.84 1021.03 1021.03 1020.91 1020.76 1020.63 1020.57 1020.60 1020.72 1020.87 1021.01 1021.10 1021.07 1020.92 1020.63 1020.23 1019.75 1019.24 1018.75
1014.38 1014.11 1013.84 1013.59 1013.40 1013.25 1013.15 1013.07 1012.98 1012.86 1012.70 1012.52 1012.35 1012.25 1012.27 1012.49 1012.94 1013.63 1014.55 1015.64 1016.82 1017.99 1019.06 1019.93 1020.58 1020.98 1021.16 1021.16 1021.07 1020.96 1020.88 1020.89 1020.98 1021.15 1021.36 1021.56 1021.68 1021.70 1021.59 1021.33 1020.96 1020.50 1020.00 1019.51
1014.79 1014.48 1014.14 1013.79 1013.47 1013.18 1012.92 1012.68 1012.45 1012.23 1012.02 1011.84 1011.73 1011.73 1011.89 1012.26 1012.86 1013.68 1014.69 1015.84 1017.04 1018.20 1019.23 1020.08 1020.69 1021.08 1021.26 1021.29 1021.24 1021.18 1021.16 1021.22 1021.37 1021.58 1021.83 1022.05 1022.21 1022.27 1022.20 1021.99 1021.67 1021.26 1020.81 1020.36
1015.01 1014.67 1014.29 1013.88 1013.45 1013.04 1012.64 1012.27 1011.93 1011.63 1011.38 1011.22 1011.17 1011.28 1011.57 1012.08 1012.81 1013.75 1014.84 1016.02 1017.22 1018.36 1019.36 1020.16 1020.75 1021.13 1021.33 1021.39 1021.39 1021.39 1021.42 1021.53 1021.71 1021.94 1022.20 1022.44 1022.62 1022.71 1022.68 1022.53 1022.29 1021.97 1021.60 1021.22
1015.03 1014.70 1014.30 1013.86 1013.38 1012.89 1012.40 1011.94 1011.52 1011.17 1010.91 1010.78 1010.80 1011.00 1011.41 1012.05 1012.89 1013.90 1015.03 1016.23 1017.41 1018.50 1019.45 1020.21 1020.77 1021.15 1021.36 1021.46 1021.51 1021.55 1021.63 1021.76 1021.95 1022.19 1022.44 1022.68 1022.86 1022.97 1022.99 1022.91 1022.76 1022.54 1022.29 1022.02
1014.90 1014.59 1014.22 1013.78 1013.29 1012.77 1012.24 1011.74 1011.29 1010.92 1010.67 1010.58 1010.67 1010.96 1011.47 1012.19 1013.10 1014.16 1015.31 1016.49 1017.63 1018.67 1019.56 1020.26 1020.79 1021.14 1021.36 1021.49 1021.57 1021.65 1021.75 1021.89 1022.08 1022.30 1022.53 1022.74 1022.92 1023.04 1023.10 1023.10 1023.05 1022.95 1022.82 1022.67
1014.69 1014.42 1014.09 1013.70 1013.24 1012.74 1012.22 1011.72 1011.27 1010.91 1010.69 1010.64 1010.79 1011.15 1011.73 1012.52 1013.47 1014.55 1015.69 1016.83 1017.91 1018.87 1019.69 1020.33 1020.81 1021.14 1021.36 1021.50 1021.59 1021.68 1021.79 1021.92 1022.09 1022.27 1022.46 1022.65 1022.81 1022.94 1023.05 1023.12 1023.16 1023.18 1023.18 1023.15
1014.49 1014.28 1014.01 1013.67 1013.26 1012.81 1012.32 1011.85 1011.42 1011.10 1010.91 1010.91 1011.10 1011.52 1012.15 1012.97 1013.94 1015.01 1016.12 1017.21 1018.21 1019.11 1019.85 1020.43 1020.86 1021.16 1021.36 1021.49 1021.59 1021.68 1021.78 1021.89 1022.02 1022.17 1022.32 1022.47 1022.62 1022.76 1022.90 1023.03 1023.16 1023.28 1023.40 1023.48
1014.41 1014.23 1014.01 1013.72 1013.37 1012.97 1012.53 1012.09 1011.70 1011.41 1011.25 1011.28 1011.52 1011.97 1012.62 1013.46 1014.43 1015.48 1016.55 1017.58 1018.52 1019.34 1020.02 1020.54 1020.92 1021.20 1021.38 1021.51 1021.60 1021.68 1021.76 1021.85 1021.95 1022.06 1022.17 1022.30 1022.43 1022.58 1022.74 1022.93 1023.13 1023.34 1023.54 1023.73
1014.47 1014.31 1014.12 1013.87 1013.56 1013.20 1012.79 1012.39 1012.02 1011.75 1011.62 1011.67 1011.93 1012.40 1013.06 1013.90 1014.86 1015.88 1016.91 1017.89 1018.78 1019.55 1020.17 1020.65 1021.00 1021.25 1021.42 1021.54 1021.63 1021.70 1021.77 1021.85 1021.93 1022.01 1022.10 1022.21 1022.33 1022.48 1022.67 1022.90 1023.15 1023.42 1023.70 1023.95
1014.70 1014.53 1014.34 1014.11 1013.82 1013.47 1013.08 1012.68 1012.33 1012.08 1011.96 1012.02 1012.28 1012.75 1013.41 1014.24 1015.18 1016.18 1017.17 1018.12 1018.97 1019.69 1020.28 1020.73 1021.06 1021.30 1021.47 1021.59 1021.69 1021.77 1021.84 1021.91 1021.99 1022.06 1022.15 1022.25 1022.37 1022.53 1022.74 1022.99 1023.28 1023.59 1023.90 1024.20
1015.04 1014.85 1014.65 1014.40 1014.10 1013.74 1013.35 1012.96 1012.61 1012.35 1012.23 1012.28 1012.54 1013.00 1013.65 1014.46 1015.38 1016.35 1017.32 1018.24 1019.06 1019.76 1020.33 1020.77 1021.10 1021.35 1021.53 1021.66 1021.77 1021.87 1021.96 1022.04 1022.13 1022.21 1022.31 1022.42 1022.55 1022.73 1022.95 1023.21 1023.52 1023.84 1024.18 1024.49
1015.45 1015.22 1014.98 1014.70 1014.37 1014.00 1013.60 1013.20 1012.84 1012.57 1012.45 1012.50 1012.74 1013.19 1013.82 1014.61 1015.50 1016.44 1017.38 1018.27 1019.07 1019.76 1020.33 1020.77 1021.11 1021.37 1021.57 1021.73 1021.87 1021.99 1022.11 1022.22 1022.33 1022.44 1022.55 1022.68 1022.84 1023.03 1023.26 1023.53 1023.84 1024.17 1024.50 1024.82
1015.82 1015.56 1015.28 1014.97 1014.62 1014.23 1013.81 1013.41 1013.05 1012.78 1012.66 1012.70 1012.93 1013.36 1013.97 1014.73 1015.59 1016.50 1017.41 1018.27 1019.05 1019.73 1020.29 1020.75 1021.10 1021.38 1021.61 1021.80 1021.97 1022.12 1022.27 1022.41 1022.55 1022.69 1022.83 1022.99 1023.16 1023.36 1023.60 1023.87 1024.17 1024.49 1024.82 1025.13
1016.10 1015.81 1015.50 1015.17 1014.80 1014.40 1013.99 1013.60 1013.25 1013.01 1012.89 1012.95 1013.18 1013.59 1014.18 1014.90 1015.72 1016.59 1017.46 1018.29 1019.05 1019.71 1020.27 1020.72 1021.09 1021.39 1021.65 1021.87 1022.06 1022.25 1022.43 1022.60 1022.77 1022.93 1023.09 1023.26 1023.45 1023.66 1023.89 1024.16 1024.45 1024.76 1025.08 1025.37
Thickness
5700 5701 5701 5706 5712 5715 5715 5715 5714 5715 5721 5723 5719 5713 5709 5711 5711 5708 5706 5704 5701 5697 5694 5693 5692 5692 5692 5692 5693 5694 5695 5696 5698 5699 5700 5700 5701 5701 5701 5700 5700 5700 5700 5700
5693 5696 5705 5710 5709 5709 5710 5710 5711 5712 5716 5716 5712 5707 5707 5705 5703 5701 5698 5695 5692 5689 5686 5683 5682 5682 5682 5682 5682 5684 5685 5686 5687 5689 5690 5691 5692 5692 5693 5693 5692 5692 5693 5694
5696 5700 5706 5704 5703 5703 5707 5712 5713 5710 5710 5713 5707 5700 5701 5699 5698 5695 5692 5688 5685 5680 5677 5674 5672 5671 5672 5671 5672 5673 5673 5675 5677 5679 5682 5683 5684 5684 5684 5684 5684 5684 5685 5687
5697 5703 5702 5702 5704 5707 5705 5715 5714 5710 5707 5708 5706 5702 5703 5699 5692 5688 5683 5681 5677 5672 5669 5666 5663 5661 5661 5661 5663 5664 5664 5666 5667 5670 5672 5674 5674 5674 5674 5675 5676 5676 5677 5679
5695 5701 5701 5701 5706 5710 5710 5716 5714 5711 5709 5705 5705 5701 5708 5701 5691 5687 5680 5676 5671 5666 5662 5657 5653 5651 5651 5652 5654 5655 5655 5656 5658 5660 5662 5663 5664 5665 5665 5666 5666 5668 5669 5670
5701 5708 5708 5707 5712 5712 5713 5711 5709 5710 5711 5694 5702 5697 5701 5702 5697 5692 5681 5671 5664 5659 5655 5650 5647 5644 5643 5644 5645 5646 5646 5647 5648 5649 5651 5652 5653 5654 5655 5655 5657 5659 5660 5661
5692 5702 5710 5713 5707 5708 5709 5702 5693 5691 5691 5695 5703 5694 5697 5699 5696 5691 5680 5667 5658 5654 5649 5644 5640 5637 5636 5636 5636 5637 5637 5637 5638 5639 5640 5641 5643 5644 5645 5646 5646 5648 5650 5651
5685 5688 5703 5709 5708 5704 5705 5704 5689 5679 5685 5697 5695 5691 5696 5692 5688 5683 5676 5664 5653 5648 5643 5637 5633 5630 5629 5628 5627 5628 5628 5628 5629 5629 5630 5631 5633 5634 5635 5635 5636 5638 5639 5640
5689 5690 5705 5708 5712 5711 5702 5704 5709 5695 5694 5687 5695 5695 5688 5681 5676 5672 5665 5655 5648 5642 5636 5631 5627 5624 5622 5620 5619 5619 5619 5619 5619 5620 5621 5622 5623 5623 5624 5625 5626 5628 5629 5631
5691 5684 5699 5705 5709 5706 5710 5705 5697 5690 5676 5674 5687 5689 5692 5682 5674 5666 5658 5650 5642 5636 5630 5624 5620 5617 5615 5613 5612 5611 5610 5610 5610 5611 5612 5612 5612 5613 5615 5616 5616 5618 5619 5621
5688 5681 5690 5696 5695 5696 5696 5695 5694 5694 5689 5674 5671 5685 5696 5691 5683 5670 5659 5649 5639 5632 5625 5618 5614 5611 5608 5606 5605 5603 5602 5602 5602 5602 5603 5603 5603 5604 5605 5606 5607 5608 5610 5612
5683 5682 5682 5691 5699 5702 5699 5695 5690 5678 5678 5680 5676 5682 5687 5686 5681 5672 5659 5645 5634 5626 5619 5613 5609 5605 5602 5599 5598 5596 5595 5594 5594 5594 5593 5593 5594 5595 5596 5596 5597 5598 5600 5602
5676 5673 5668 5674 5680 5689 5691 5691 5690 5685 5679 5675 5670 5678 5679 5678 5673 5665 5652 5637 5625 5617 5612 5608 5602 5598 5595 5592 5590 5589 5587 5586 5585 5585 5585 5584 5584 5585 5585 5586 5588 5589 5591 5592
5671 5670 5669 5665 5672 5683 5682 5685 5687 5681 5676 5674 5678 5681 5678 5671 5662 5653 5642 5630 5619 5611 5605 5601 5595 5590 5586 5584 5581 5580 5579 5577 5576 5576 5575 5574 5574 5575 5575 5577 5579 5580 5581 5582
5666 5666 5671 5676 5681 5681 5681 5682 5684 5681 5680 5675 5679 5679 5679 5670 5659 5647 5634 5622 5612 5604 5598 5592 5586 5582 5578 5575 5572 5570 5568 5567 5566 5566 5565 5564 5564 5565 5566 5567 5568 5569 5571 5572
5658 5659 5664 5666 5676 5678 5676 5681 5682 5680 5680 5678 5677 5674 5671 5664 5652 5637 5625 5615 5606 5598 5592 5585 5579 5574 5570 5566 5564 5561 5559 5557 5557 5556 5555 5555 5555 5555 5556 5556 5557 5559 5560 5561
5652 5652 5653 5658 5670 5670 5667 5677 5678 5678 5680 5675 5668 5665 5659 5648 5638 5628 5618 5609 5601 5592 5584 5577 5570 5565 5561 5557 5555 5553 5550 5549 5548 5547 5546 5545 5545 5545 5545 5546 5546 5547 5548 5549
5638 5644 5650 5653 5655 5647 5668 5679 5677 5673 5671 5670 5664 5658 5650 5639 5629 5620 5611 5603 5593 5584 5576 5569 5562 5556 5552 5549 5546 5544 5542 5540 5540 5538 5537 5536 5536 5535 5535 5535 5535 5536 5537 5538
5638 5639 5644 5647 5648 5655 5665 5668 5668 5663 5658 5657 5652 5645 5636 5626 5616 5607 5602 5595 5586 5577 5569 5561 5555 5549 5544 5540 5538 5536 5534 5532 5531 5529 5528 5527 5526 5526 5526 5526 5526 5527 5528 5529
5637 5637 5639 5643 5638 5641 5649 5659 5665 5658 5646 5646 5643 5634 5626 5621 5617 5606 5594 5585 5576 5568 5560 5552 5546 5541 5536 5532 5530 5529 5526 5524 5522 5521 5519 5518 5518 5518 5518 5518 5518 5519 5520 5521
5632 5632 5634 5637 5638 5646 5645 5655 5660 5642 5632 5637 5636 5630 5623 5621 5617 5603 5587 5577 5567 5559 5550 5544 5539 5534 5529 5525 5523 5521 5519 5516 5514 5513 5511 5511 5511 5510 5511 5510 5511 5512 5513 5514
5628 5631 5632 5634 5632 5631 5638 5645 5637 5630 5634 5633 5630 5624 5617 5610 5601 5589 5578 5568 5558 5550 5542 5537 5532 5527 5522 5518 5516 5514 5512 5509 5508 5506 5505 5504 5505 5506 5505 5505 5505 5506 5508 5508
5623 5623 5626 5628 5627 5629 5631 5629 5629 5629 5628 5626 5623 5617 5609 5600 5589 5580 5570 5560 5551 5544 5537 5531 5527 5521 5517 5513 5511 5509 5505 5504 5503 5501 5500 5499 5500 5499 5500 5500 5501 5502 5503 5506
5620 5622 5622 5624 5629 5628 5626 5626 5626 5625 5623 5621 5617 5611 5604 5593 5582 5572 5563 5553 5545 5537 5531 5527 5522 5517 5512 5509 5507 5504 5502 5500 5499 5497 5496 5495 5495 5496 5496 5498 5499 5500 5500 5501
5610 5615 5617 5619 5622 5623 5622 5620 5620 5619 5617 5614 5610 5605 5597 5587 5577 5567 5558 5549 5541 5534 5527 5522 5517 5513 5509 5505 5502 5500 5498 5497 5495 5494 5493 5493 5492 5493 5493 5492 5490 5493 5491 5492
5611 5611 5611 5614 5615 5615 5614 5615 5615 5613 5611 5608 5603 5596 5590 5582 5572 5563 5554 5545 5538 5530 5524 5518 5514 5510 5506 5503 5500 5498 5496 5494 5493 5492 5492 5492 5492 5491 5492 5491 5487 5482 5484 5484